Home > Weather > Luhansk > Past weeks

Flag for Ukraine Weather for the Past 2 Weeks in Luhansk, Ukraine

Now
36 °F

Scattered clouds.


Feels Like: 31 °F
Forecast: 21 / 36 °F
Wind: 6 mph from Northeast

Location: Rostov-Na-Donu

Current Time: Feb 7, 2016 at 5:08:39 PM

Latest Report: Feb 7, 2016 at 4:30 PM


Visibility: N/A

Pressure: 30.39 "Hg

Humidity: 65%

Dew point: 25 °F

Location of LuhanskLocation

Historic Weather in Luhansk — Graph

°F

Luhansk Temperature Yesterday

Maximum temperature yesterday: 36 °F (at 12:00 AM)
Minimum temperature yesterday: 28 °F (at 11:30 PM)
Average temperature yesterday: 33 °F

High & Low Weather Summary for the Past Weeks

 TemperatureHumidityPressure
High54 °F (Feb 4, 4:30 PM)100% (Jan 27, 10:00 PM)30.48 "Hg (Jan 27, 10:00 PM)
Low1 °F (Jan 25, 6:00 AM)58% (Feb 4, 1:00 PM)29.77 "Hg (Feb 4, 8:30 PM)
Average29 °F84%30.15 "Hg
* Reported Jan 23 4:00 PM — Feb 7 4:00 PM, Luhansk, Weather by CustomWeather, © 2016

Note: Actual official high and low records may vary slightly from our data, if they occured in-between our weather recording intervals... More about our weather records

Advertising

Luhansk Weather History for the Previous 24 Hours

 ConditionsComfort  
Time TempWeatherWind HumidityBarometerVisibility
4:00 PM
Sun, Feb 7
36 °FPassing clouds.6 mph65%30.39 "HgN/A
3:30 PM36 °FPassing clouds.3 mph65%30.39 "HgN/A
3:00 PM36 °FPassing clouds.6 mph65%30.39 "HgN/A
2:30 PM36 °FPassing clouds.6 mph65%30.39 "HgN/A
2:00 PM36 °FPassing clouds.3 mph65%30.39 "HgN/A
1:30 PM34 °FPassing clouds.3 mph70%30.39 "HgN/A
1:00 PM34 °FPassing clouds.6 mph70%30.39 "HgN/A
12:30 PM34 °FPassing clouds.6 mph70%30.39 "HgN/A
12:00 PM34 °FPassing clouds.6 mph70%30.39 "HgN/A
11:30 AM32 °FPassing clouds.6 mph75%30.39 "HgN/A
11:00 AM32 °FPassing clouds.6 mph75%30.39 "HgN/A
10:30 AM30 °FPassing clouds.3 mph80%30.39 "HgN/A
10:00 AM30 °FSunny.3 mph80%30.36 "Hg10 mi
9:30 AM28 °FSunny.3 mph80%30.36 "Hg10 mi
9:00 AM25 °FSunny.1 mph93%30.36 "Hg10 mi
8:30 AM23 °FClear.No wind93%30.36 "Hg10 mi
8:00 AM23 °FClear.1 mph93%30.33 "Hg10 mi
7:30 AM21 °FClear.3 mph86%30.33 "HgN/A
7:00 AM25 °FClear.6 mph93%30.30 "HgN/A
6:30 AM27 °FClear.8 mph86%30.30 "HgN/A
6:00 AM27 °FClear.6 mph86%30.27 "HgN/A
5:30 AM27 °FClear.6 mph86%30.27 "HgN/A
5:00 AM27 °FClear.6 mph86%30.27 "HgN/A
4:30 AM27 °FClear.8 mph86%30.27 "HgN/A
4:00 AM27 °FClear.8 mph86%30.24 "HgN/A
3:30 AM27 °FClear.10 mph86%30.24 "HgN/A
3:00 AM27 °FClear.10 mph86%30.24 "HgN/A
2:30 AM27 °FClear.8 mph86%30.24 "HgN/A
2:00 AM27 °FClear.10 mph86%30.21 "HgN/A
1:30 AM28 °FClear.8 mph80%30.21 "HgN/A
12:00 AM28 °FClear.8 mph80%30.18 "HgN/A
11:30 PM
Sat, Feb 6
28 °FClear.8 mph80%30.18 "HgN/A
11:00 PM30 °FClear.8 mph75%30.18 "HgN/A
10:30 PM30 °FClear.8 mph80%30.18 "HgN/A
10:00 PM32 °FClear.8 mph75%30.15 "HgN/A
9:30 PM32 °FClear.8 mph80%30.15 "HgN/A
9:00 PM32 °FClear.8 mph80%30.15 "HgN/A
8:30 PM32 °FClear.6 mph87%30.12 "HgN/A
8:00 PM32 °FClear.6 mph87%30.12 "HgN/A
7:30 PM32 °FClear.6 mph93%30.12 "HgN/A
7:00 PM32 °FClear.6 mph93%30.12 "HgN/A
6:30 PM32 °FClear.6 mph93%30.09 "HgN/A
6:00 PM32 °FClear.6 mph93%30.09 "HgN/A
5:30 PM32 °FSunny.6 mph93%30.09 "Hg10 mi
5:00 PM32 °FOvercast.6 mph93%30.07 "HgN/A
Weather by CustomWeather, © 2016

See weather overviewHow to use our weather pages